Location: Newark
(54.6833°N, 25.2833°E)
Time: 16:39:57
(UTC+00:00)

Altair - Pass Details

Date: 20 November 2019
Orbit: 1502 x 1682 km, 47.2° (Epoch: 12 December)

Event Time Altitude Azimuth Distance (km) Brightness Sun altitude
Rises 01:36:13 0° 227° (SW) 4,640 - -37.0°
Reaches altitude 10° 01:39:26 10° 220° (SW) 3,653 - -36.5°
Exits shadow 01:46:47 40° 169° (S) 2,088 8.0 -35.5°
Maximum altitude 01:47:46 41° 155° (SSE) 2,059 8.1 -35.4°
Drops below altitude 10° 01:56:10 10° 89° (E) 3,688 10.3 -34.2°
Sets 01:59:26 0° 83° (E) 4,690 11.1 -33.8°
